Regional Weather Roundup
Issued by NWS

Home | Current Version | Previous Version | Text Only | Print | Product List | Glossary Off
Versions: 1 2 3 4 5 6 7 8 9 10 11 12 13 14 15 16 17 18 19 20 21 22 23 24 25 26 27 28 29 30 31 32 33 34 35 36 37 38 39 40 41 42 43 44 45 46 47 48 49 50

000
ASUS44 KMEG 302010
RWRTN
TENNESSEE HOURLY STATE WEATHER ROUNDUP
NATIONAL WEATHER SERVICE MEMPHIS TN
300 PM CDT TUE JUN 30 2015

TNZ002-004-019-021-049-052-054-088>092-302100-
WEST TENNESSEE

CITY           SKY/WX    TMP DP  RH WIND       PRES   REMARKS
MEMPHIS INTL   CLOUDY    86  72  62 SW10      29.95F HX  92
NWS MEMPHIS      N/A     86 N/A N/A MISG        N/A
JACKSON        SUNNY     87  67  51 W12       29.93F HX  90
DYERSBURG        N/A    N/A N/A N/A MISG        N/A
PARIS          MOSUNNY   82  68  61 SW8       29.92F
LEXINGTON      SUNNY     84  70  61 W10       29.92F
$$

TNZ008-025-027-028-033-062-065-066-302100-
NORTH MIDDLE TENNESSEE

CITY           SKY/WX    TMP DP  RH WIND       PRES   REMARKS
NASHVILLE      CLOUDY    85  67  54 W13G21    29.90F
CLARKSVILLE    SUNNY     84  66  54 W10G17    29.89F
SMYRNA         SUNNY     87  68  53 W14       29.90F HX  90
COOKEVILLE     SUNNY     82  72  69 W3        29.91S
CROSSVILLE     TSTM      74  67  78 W10       29.97R
$$

TNZ061-075-076-078-094-096-097-302100-
SOUTH MIDDLE TENNESSEE

CITY           SKY/WX    TMP DP  RH WIND       PRES   REMARKS
FAYETTEVILLE   MOSUNNY   81  68  65 W14       29.95S
TULLAHOMA      MOSUNNY   82  68  61 SW14      29.94F
WINCHESTER     SUNNY     81  72  74 VRB6      29.94F
MCMINNVILLE    MOSUNNY   82  72  69 W15       29.91F
COLUMBIA       MOSUNNY   84  72  65 W9        29.92S
SHELBYVILLE    PTSUNNY   84  73  70 SW12      29.93S HX  91
$$

TNZ017-018-042-046-047-302100-
NORTHEAST TENNESSEE

CITY           SKY/WX    TMP DP  RH WIND       PRES   REMARKS
TRI CITIES     CLOUDY    80  64  58 SW10      29.94S
ELIZABETHTON   PTCLDY    79  64  61 VRB7      29.94S
$$

TNZ012-013-036-069-073-074-302100-
CENTRAL EAST TENNESSEE

CITY           SKY/WX    TMP DP  RH WIND       PRES   REMARKS
KNOXVILLE      CLOUDY    74  68  81 VRB3      29.93R
OAK RIDGE      PTSUNNY   72  66  81 CALM      29.94S
GATLINBURG     PTCLDY    70  64  83 NW7       29.96R
MORRISTOWN     CLEAR     77  68  73 SW17      29.96S
$$

TNZ083-085-099-302100-
SOUTHEAST TENNESSEE

CITY           SKY/WX    TMP DP  RH WIND       PRES   REMARKS
CHATTANOOGA    PTSUNNY   84  67  56 VRB7      29.92F
$$

SKY/WX REPORTED AS FAIR MEANS FEW OR NO CLOUDS BELOW
12 THOUSAND FEET.



USA.gov is the U.S. government's official web portal to all federal, state and local government web resources and services.